Terminal Aerodrome Forecast
Issued by NWS

Home | Current Version | Previous Version | Text Only | Print | Product List | Glossary On
Versions: 1 2 3 4 5 6 7 8 9 10 11 12 13 14 15 16 17 18 19 20 21 22 23 24 25 26 27 28 29 30 31 32 33 34 35 36 37 38
000
FTUS43 KGLD 190404 AAA
TAFMCK
TAF AMD
KMCK 190404Z 1904/1924 VRB05KT 5SM BR OVC006
      TEMPO 1906/1910 1SM BR BKN005
     FM191500 27006KT P6SM SCT120
     FM192000 23007KT P6SM SCT150=

USA.gov is the U.S. government's official web portal to all federal, state and local government web resources and services.